Swanton, VT

12:51 PM EST on February 28, 2017 (GMT -0500)
Franklin County State

Weather History for KFSO - January, 2014

Change the Weather History Date:

Friday, January 3, 2014

  Actual Average (KPBG) Record (KPBG)
Temperature  
Mean Temperature -7 °F -  
Max Temperature -1 °F 27 °F 46 °F (1950)
Min Temperature -13 °F 10 °F -28 °F (1981)
Degree Days  
Heating Degree Days 72    
Moisture  
Dew Point -17 °F    
Average Humidity 64    
Maximum Humidity 73    
Minimum Humidity 50    
Precipitation  
Precipitation 0.00 in - - ()
Sea Level Pressure  
Sea Level Pressure 30.25 in    
Wind  
Wind Speed 8 mph (NNE)    
Max Wind Speed 13 mph    
Max Gust Speed 20 mph    
Visibility 9 miles    
Events Snow    
Averages and records for this station are not official NWS values.
T = Trace of Precipitation, MM = Missing Value Source: NWS Daily Summary

Daily Weather History Graph

Daily Weather History Graph

Search for Another Location

Airport or City:

Trip Planner

Search our weather history database for the weather conditions in past years. The results will help you decide how hot, cold, wet, or windy it might be!

Date:

Astronomy

Jan. 03, 2014 Rise Set
Actual Time 7:30 AM EST 4:23 PM EST
Civil Twilight 6:56 AM EST 4:57 PM EST
Nautical Twilight 6:20 AM EST 5:34 PM EST
Astronomical Twilight 5:44 AM EST 6:09 PM EST
Moon 8:46 AM EST (1/3) 7:38 PM EST (1/3)
Length of Visible Light 10h 00m
Length of Day
8h 53m
Waxing Crescent, 8% of the Moon is Illuminated
Jan 3
Waxing Crescent
Jan 7
First Quarter
Jan 15
Full
Jan 24
Last Quarter
Jan 30
New

Hourly Weather History & Observations

Time (EST) Temp. Windchill Dew Point Humidity Pressure Visibility Wind Dir Wind Speed Gust Speed Precip Events Conditions
12:15 AM -6.7 °F -23.5 °F -14.1 °F 70% 30.09 in 4.0 mi North 9.2 mph - N/A Snow Light Snow
12:35 AM -6.2 °F -22.8 °F -13.7 °F 70% 30.09 in 5.0 mi North 9.2 mph 17.3 mph N/A Snow Light Snow
12:55 AM -5.3 °F -21.7 °F -12.8 °F 70% 30.09 in 5.0 mi North 9.2 mph 17.3 mph N/A   Haze
1:15 AM -5.4 °F -23.0 °F -13.2 °F 69% 30.08 in 4.0 mi North 10.4 mph - N/A   Haze
1:35 AM -4.9 °F -20.1 °F -12.6 °F 69% 30.08 in 4.0 mi North 8.1 mph 18.4 mph N/A   Haze
1:55 AM -4.4 °F -23.4 °F -12.1 °F 69% 30.09 in 4.0 mi North 12.7 mph 19.6 mph N/A Snow Light Snow
2:15 AM -4.4 °F -20.6 °F -12.3 °F 69% 30.08 in 4.0 mi North 9.2 mph - N/A   Haze
2:35 AM -4.4 °F -21.6 °F -12.3 °F 69% 30.08 in 5.0 mi North 10.4 mph - N/A   Haze
2:55 AM -5.1 °F -23.5 °F -13.0 °F 69% 30.08 in 4.0 mi North 11.5 mph 16.1 mph N/A   Haze
3:15 AM -5.6 °F -23.2 °F -13.5 °F 69% 30.07 in 7.0 mi North 10.4 mph 16.1 mph N/A   Overcast
3:35 AM -5.3 °F -23.7 °F -13.4 °F 68% 30.07 in 10.0 mi North 11.5 mph 16.1 mph N/A   Overcast
3:55 AM -5.6 °F -21.0 °F -13.9 °F 67% 30.07 in 5.0 mi North 8.1 mph - N/A   Haze
4:15 AM -5.6 °F -22.2 °F -13.7 °F 68% 30.07 in 7.0 mi North 9.2 mph - N/A   Overcast
4:35 AM -6.5 °F -20.8 °F -14.4 °F 69% 30.08 in 7.0 mi North 6.9 mph - N/A   Overcast
4:55 AM -6.9 °F -23.7 °F -14.8 °F 68% 30.08 in 4.0 mi North 9.2 mph - N/A   Haze
5:15 AM -6.9 °F -23.7 °F -15.0 °F 68% 30.09 in 7.0 mi North 9.2 mph - N/A   Overcast
5:35 AM -6.9 °F -21.2 °F -15.0 °F 68% 30.10 in 10.0 mi North 6.9 mph - N/A   Overcast
5:55 AM -6.9 °F -22.5 °F -15.3 °F 67% 30.11 in 7.0 mi NNW 8.1 mph - N/A   Overcast
6:15 AM -6.9 °F -21.2 °F -15.7 °F 66% 30.12 in 5.0 mi North 6.9 mph 16.1 mph N/A   Haze
6:35 AM -7.2 °F -25.2 °F -15.9 °F 66% 30.13 in 7.0 mi NNW 10.4 mph - N/A   Overcast
6:55 AM -7.6 °F -24.6 °F -16.2 °F 66% 30.14 in 10.0 mi NNW 9.2 mph 16.1 mph N/A   Overcast
7:15 AM -8.1 °F -28.2 °F -17.3 °F 64% 30.15 in 10.0 mi North 12.7 mph 17.3 mph N/A   Overcast
7:35 AM -8.1 °F -28.2 °F -17.5 °F 64% 30.16 in 10.0 mi North 12.7 mph 19.6 mph N/A   Overcast
7:55 AM -8.3 °F -25.5 °F -17.5 °F 64% 30.18 in 10.0 mi North 9.2 mph - N/A   Overcast
8:15 AM -8.7 °F -23.4 °F -17.7 °F 65% 30.18 in 10.0 mi NNW 6.9 mph - N/A   Overcast
8:35 AM -9.4 °F -25.6 °F -18.4 °F 65% 30.19 in 10.0 mi NNW 8.1 mph - N/A   Mostly Cloudy
8:55 AM -9.4 °F -24.3 °F -18.4 °F 65% 30.20 in 10.0 mi NNW 6.9 mph - N/A   Mostly Cloudy
9:15 AM -8.1 °F -24.1 °F -17.5 °F 64% 30.21 in 10.0 mi North 8.1 mph - N/A   Scattered Clouds
9:35 AM -8.5 °F -21.6 °F -18.8 °F 61% 30.22 in 10.0 mi North 5.8 mph - N/A   Clear
9:55 AM -6.9 °F -19.7 °F -17.5 °F 60% 30.22 in 10.0 mi North 5.8 mph - N/A   Clear
10:15 AM -6.9 °F -22.5 °F -18.2 °F 58% 30.24 in 10.0 mi North 8.1 mph - N/A   Clear
10:35 AM -6.9 °F -21.2 °F -18.6 °F 57% 30.24 in 10.0 mi North 6.9 mph - N/A   Clear
10:55 AM -6.9 °F -23.7 °F -18.9 °F 56% 30.24 in 10.0 mi North 9.2 mph - N/A   Clear
11:15 AM -6.9 °F -23.7 °F -19.3 °F 55% 30.24 in 10.0 mi North 9.2 mph - N/A   Clear
11:35 AM -6.5 °F -25.3 °F -19.3 °F 54% 30.25 in 10.0 mi North 11.5 mph - N/A   Clear
11:55 AM -4.4 °F -22.6 °F -17.7 °F 53% 30.25 in 10.0 mi North 11.5 mph 17.3 mph N/A   Clear
12:15 PM -4.4 °F -20.6 °F -18.0 °F 52% 30.25 in 10.0 mi North 9.2 mph - N/A   Clear
12:35 PM -4.4 °F -18.2 °F -18.4 °F 51% 30.27 in 10.0 mi NNW 6.9 mph - N/A   Clear
12:55 PM -3.6 °F -17.3 °F -17.5 °F 52% 30.26 in 10.0 mi North 6.9 mph - N/A   Clear
1:15 PM -3.1 °F -13.5 °F -17.1 °F 51% 30.27 in 10.0 mi North 4.6 mph - N/A   Clear
1:35 PM -2.0 °F -12.2 °F -16.2 °F 51% 30.28 in 10.0 mi NNW 4.6 mph - N/A   Clear
1:55 PM -1.8 °F -9.9 °F -16.6 °F 50% 30.29 in 10.0 mi NNW 3.5 mph - N/A   Clear
2:15 PM -1.8 °F -9.9 °F -16.6 °F 50% 30.30 in 10.0 mi North 3.5 mph - N/A   Clear
2:35 PM -1.8 °F -9.9 °F -15.9 °F 51% 30.31 in 10.0 mi NNW 3.5 mph - N/A   Clear
2:55 PM -1.8 °F -9.9 °F -15.7 °F 52% 30.30 in 10.0 mi North 3.5 mph - N/A   Clear
3:15 PM -1.8 °F - -15.7 °F 52% 30.31 in 10.0 mi Calm Calm - N/A   Clear
3:35 PM -3.1 °F -11.4 °F -16.6 °F 53% 30.33 in 10.0 mi North 3.5 mph - N/A   Clear
3:55 PM -4.2 °F - -17.9 °F 52% 30.33 in 10.0 mi Calm Calm - N/A   Clear
4:15 PM -4.4 °F - -17.0 °F 55% 30.34 in 10.0 mi Calm Calm - N/A   Clear
4:35 PM -4.4 °F - -15.3 °F 59% 30.35 in 10.0 mi Calm Calm - N/A   Clear
4:55 PM -8.1 °F -17.1 °F -18.4 °F 61% 30.36 in 10.0 mi East 3.5 mph - N/A   Clear
5:15 PM -9.2 °F - -17.1 °F 68% 30.37 in 10.0 mi Calm Calm - N/A   Clear
5:35 PM -9.4 °F - -17.9 °F 66% 30.38 in 10.0 mi Calm Calm - N/A   Clear
5:55 PM -8.9 °F - -16.8 °F 68% 30.39 in 10.0 mi Calm Calm - N/A   Clear
6:15 PM -9.4 °F -18.6 °F -17.3 °F 68% 30.39 in 10.0 mi East 3.5 mph - N/A   Clear
6:35 PM -9.8 °F -21.3 °F -17.7 °F 68% 30.40 in 10.0 mi East 4.6 mph - N/A   Clear
6:55 PM -13.4 °F - -20.7 °F 70% 30.41 in 10.0 mi Calm Calm - N/A   Clear
7:15 PM -9.4 °F -22.7 °F -15.9 °F 73% 30.41 in 10.0 mi East 5.8 mph - N/A   Clear
7:35 PM -12.6 °F -22.3 °F -19.8 °F 70% 30.41 in 10.0 mi ESE 3.5 mph - N/A   Clear
7:55 PM -12.1 °F -21.7 °F -18.9 °F 72% 30.41 in 10.0 mi East 3.5 mph - N/A   Clear
8:15 PM -12.6 °F -22.3 °F -20.0 °F 70% 30.42 in 10.0 mi ESE 3.5 mph - N/A   Clear
8:35 PM -11.2 °F -20.6 °F -18.4 °F 70% 30.43 in 10.0 mi ESE 3.5 mph - N/A   Clear
8:55 PM -12.1 °F -21.7 °F -19.3 °F 70% 30.43 in 10.0 mi ESE 3.5 mph - N/A   Clear
9:15 PM -12.1 °F -21.7 °F -19.3 °F 70% 30.43 in 10.0 mi ESE 3.5 mph - N/A   Clear
9:35 PM -12.1 °F - -19.3 °F 70% 30.42 in 10.0 mi Calm Calm - N/A   Clear
9:55 PM -12.6 °F -26.6 °F -20.0 °F 70% 30.40 in 10.0 mi East 5.8 mph - N/A   Clear
10:15 PM -13.0 °F -22.7 °F -20.7 °F 68% 30.41 in 10.0 mi ESE 3.5 mph - N/A   Clear
10:35 PM -12.1 °F -21.7 °F -19.5 °F 70% 30.40 in 10.0 mi SE 3.5 mph - N/A   Clear
10:55 PM -12.1 °F -25.9 °F -19.3 °F 70% 30.40 in 10.0 mi SE 5.8 mph - N/A   Clear
11:15 PM -12.1 °F -24.0 °F -19.7 °F 69% 30.40 in 10.0 mi SE 4.6 mph - N/A   Clear
11:35 PM -12.1 °F -21.7 °F -19.7 °F 69% 30.40 in 10.0 mi ESE 3.5 mph - N/A   Clear
11:55 PM -12.1 °F -24.0 °F -19.8 °F 68% 30.40 in 10.0 mi SE 4.6 mph - N/A   Clear